GW6172 Weather Reports


Display with metric or nautical units.
time (UTC)temp
F
wind
direction
speed
MPH
gust
MPH
rain 1hr
in
rain 24hr
in
rain mn
in
humidity
%
barometer
mb
20260506051010 35 272 5.0 7.0 0.00 0.00 0.00 58 1004.2
20260506045010 35 279 6.0 8.0 0.00 0.00 0.00 58 1004.0
20260506044011 35 267 6.0 5.0 0.00 0.00 0.00 58 1004.0
20260506043011 35 259 6.0 9.0 0.00 0.00 0.00 58 1004.0
20260506042011 34 273 8.0 9.0 0.00 0.00 0.00 59 1003.8
20260506041011 34 258 8.0 10.0 0.00 0.00 0.00 59 1003.8
20260506040011 34 304 7.0 9.0 0.00 0.00 0.00 58 1003.6
20260506035010 34 289 7.0 9.0 0.00 0.00 0.00 58 1003.6
20260506034011 33 264 6.0 8.0 0.00 0.00 0.00 59 1003.4
20260506033011 33 254 5.0 7.0 0.00 0.00 0.00 59 1003.4
20260506032011 33 267 6.0 7.0 0.00 0.00 0.00 59 1003.4
20260506031011 32 264 4.0 6.0 0.00 0.00 0.00 59 1003.4
20260506030011 32 270 6.0 9.0 0.00 0.00 0.00 59 1003.3
20260506025011 32 262 4.0 4.0 0.00 0.00 0.00 58 1003.2
20260506024011 32 269 5.0 7.0 0.00 0.00 0.00 58 1003.2
20260506023011 31 274 3.0 5.0 0.00 0.00 0.00 58 1003.2
20260506022011 31 253 5.0 8.0 0.00 0.00 0.00 57 1003.2
20260506021011 31 252 3.0 7.0 0.00 0.00 0.00 57 1003.1
20260506020011 32 231 6.0 3.0 0.00 0.00 0.00 56 1003.0
20260506015011 32 253 3.0 5.0 0.00 0.00 0.00 56 1003.0
20260506014011 32 253 4.0 5.0 0.00 0.00 0.00 56 1003.0
20260506013011 32 248 4.0 4.0 0.00 0.00 0.00 55 1002.9
20260506012010 33 254 5.0 6.0 0.00 0.00 0.00 55 1002.8
20260506011011 33 282 6.0 8.0 0.00 0.00 0.00 55 1002.7
20260506010011 33 266 7.0 10.0 0.00 0.00 0.00 55 1002.6
20260506005011 33 245 7.0 6.0 0.00 0.00 0.00 54 1002.5
20260506004011 33 264 5.0 6.0 0.00 0.00 0.00 54 1002.5
20260506003011 33 262 6.0 4.0 0.00 0.00 0.00 53 1002.5
20260506002011 33 267 5.0 8.0 0.00 0.00 0.00 53 1002.4
20260506001011 33 247 5.0 7.0 0.00 0.00 0.00 52 1002.3
20260506000011 33 268 6.0 9.0 0.00 0.00 0.00 52 1002.2
20260505235010 33 283 5.0 9.0 0.00 0.00 0.00 51 1002.2
20260505234011 34 263 5.0 5.0 0.00 0.00 0.00 51 1002.2
20260505233011 34 257 4.0 6.0 0.00 0.00 0.00 51 1002.1
20260505232011 34 260 6.0 9.0 0.00 0.00 0.00 51 1002.1
20260505231011 34 255 5.0 6.0 0.00 0.00 0.00 50 1002.1
20260505230011 34 266 4.0 4.0 0.00 0.00 0.00 50 1002.1
20260505225011 34 257 4.0 5.0 0.00 0.00 0.00 49 1002.0
20260505224010 34 274 4.0 5.0 0.00 0.00 0.00 49 1002.0
20260505223011 35 244 4.0 6.0 0.00 0.00 0.00 49 1002.0
20260505222011 35 260 5.0 4.0 0.00 0.00 0.00 48 1001.9
20260505221010 35 255 4.0 6.0 0.00 0.00 0.00 48 1001.9
20260505220011 35 272 3.0 5.0 0.00 0.00 0.00 48 1001.9
20260505215010 35 275 3.0 4.0 0.00 0.00 0.00 47 1001.9
20260505214010 35 236 3.0 4.0 0.00 0.00 0.00 47 1001.9
20260505213011 35 263 4.0 5.0 0.00 0.00 0.00 47 1001.9
20260505212011 36 260 3.0 6.0 0.00 0.00 0.00 46 1001.8
20260505211011 36 261 3.0 4.0 0.00 0.00 0.00 46 1001.7
20260505210011 36 277 5.0 7.0 0.00 0.00 0.00 46 1001.7
20260505205011 36 273 3.0 5.0 0.00 0.00 0.00 46 1001.6
20260505204011 36 254 3.0 3.0 0.00 0.00 0.00 45 1001.6
20260505203011 36 258 3.0 2.0 0.00 0.00 0.00 44 1001.5
20260505202011 36 259 3.0 4.0 0.00 0.00 0.00 44 1001.4
20260505201011 36 273 2.0 3.0 0.00 0.00 0.00 44 1001.4
20260505200011 37 246 2.0 1.0 0.00 0.00 0.00 43 1001.3
20260505195011 37 249 4.0 4.0 0.00 0.00 0.00 43 1001.3
20260505194011 38 254 3.0 4.0 0.00 0.00 0.00 42 1001.2
20260505193011 38 260 4.0 6.0 0.00 0.00 0.00 41 1001.1
20260505192011 38 315 2.0 2.0 0.00 0.00 0.00 40 1001.1
20260505191011 39 245 3.0 2.0 0.00 0.00 0.00 40 1001.0
20260505190011 40 303 3.0 4.0 0.00 0.00 0.00 39 1001.0
20260505185011 40 253 2.0 2.0 0.00 0.00 0.00 39 1000.9
20260505184011 41 245 4.0 4.0 0.00 0.00 0.00 38 1000.9
20260505183011 42 271 3.0 4.0 0.00 0.00 0.00 38 1000.7
20260505182011 42 275 5.0 5.0 0.00 0.00 0.00 37 1000.6
20260505181011 43 288 5.0 6.0 0.00 0.00 0.00 37 1000.5
20260505180011 43 256 10.0 9.0 0.00 0.00 0.00 37 1000.5
20260505175011 44 277 8.0 12.0 0.00 0.00 0.00 36 1000.3
20260505174011 44 284 8.0 10.0 0.00 0.00 0.00 36 1000.2
20260505173011 44 297 6.0 9.0 0.00 0.00 0.00 36 1000.2
20260505172011 45 256 5.0 6.0 0.00 0.00 0.00 35 1000.1
20260505171011 46 264 8.0 9.0 0.00 0.00 0.00 34 1000.1
20260505170011 47 266 7.0 9.0 0.00 0.00 0.00 33 1000.1
20260505165011 50 282 8.0 9.0 0.00 0.00 0.00 32 1000.0
20260505164011 52 278 10.0 11.0 0.00 0.00 0.00 30 999.9
20260505163011 53 296 12.0 10.0 0.00 0.00 0.00 30 999.8
20260505162011 52 270 11.0 12.0 0.00 0.00 0.00 31 999.6
20260505161011 51 286 10.0 12.0 0.00 0.00 0.00 32 999.6
20260505153011 48 302 9.0 11.0 0.00 0.00 0.00 33 999.2
20260505152011 48 280 8.0 11.0 0.00 0.00 0.00 33 999.1
20260505151011 48 315 11.0 12.0 0.00 0.00 0.00 33 999.1
20260505125011 50 264 12.0 19.0 0.00 0.00 0.00 35 998.2
20260505124010 50 295 13.0 14.0 0.00 0.00 0.00 35 998.1
20260505123011 50 318 7.0 11.0 0.00 0.00 0.00 36 997.9
20260505122011 50 291 10.0 12.0 0.00 0.00 0.00 37 997.9
20260505121011 49 308 12.0 16.0 0.00 0.00 0.00 37 997.8
20260505120011 48 310 9.0 10.0 0.00 0.00 0.00 37 997.6
20260505115011 48 297 16.0 16.0 0.00 0.00 0.00 38 997.7
20260505114011 49 305 13.0 17.0 0.00 0.00 0.00 38 997.5
20260505113011 49 302 11.0 15.0 0.00 0.00 0.00 38 997.4
20260505112011 50 311 9.0 15.0 0.00 0.00 0.00 39 997.4
20260505111011 49 280 10.0 17.0 0.00 0.00 0.00 39 997.2
20260505102010 49 285 12.0 19.0 0.00 0.00 0.00 41 996.7
20260505101011 48 301 9.0 14.0 0.00 0.00 0.00 43 996.6
20260505100011 48 294 8.0 12.0 0.00 0.00 0.00 43 996.6
20260505095010 48 300 9.0 9.0 0.00 0.00 0.00 44 996.6
20260505094011 47 267 10.0 10.0 0.00 0.00 0.00 44 996.7
20260505093011 48 304 9.0 11.0 0.00 0.00 0.00 45 996.5
20260505092010 48 319 6.0 9.0 0.00 0.00 0.00 46 996.4
20260505091011 48 274 8.0 11.0 0.00 0.00 0.00 45 996.4
20260505090012 47 260 8.0 11.0 0.00 0.00 0.00 47 996.4
20260505085010 47 256 8.0 13.0 0.00 0.00 0.00 46 996.3
20260505084011 47 302 9.0 14.0 0.00 0.00 0.00 48 996.3
20260505083011 47 313 10.0 13.0 0.00 0.00 0.00 48 996.1
20260505082011 47 254 8.0 11.0 0.00 0.00 0.00 49 996.0
20260505081010 47 294 9.0 12.0 0.00 0.00 0.00 49 996.0
20260505080011 47 278 10.0 12.0 0.00 0.00 0.00 50 995.9
20260505075011 46 290 6.0 9.0 0.00 0.00 0.00 51 995.8
20260505074011 46 303 10.0 16.0 0.00 0.00 0.00 52 995.8
20260505073011 45 326 11.0 10.0 0.00 0.00 0.00 52 995.7
20260505072011 44 322 8.0 11.0 0.00 0.00 0.00 52 995.6
20260505071011 44 299 9.0 10.0 0.00 0.00 0.00 53 995.7
20260505070011 44 307 9.0 13.0 0.00 0.00 0.00 53 995.7
20260505065011 43 298 11.0 13.0 0.00 0.00 0.00 54 995.5
20260505064010 43 308 8.0 11.0 0.00 0.00 0.00 55 995.4
20260505063011 42 304 10.0 12.0 0.00 0.00 0.00 56 995.4
20260505062011 42 316 8.0 10.0 0.00 0.00 0.00 57 995.3
20260505061010 41 281 8.0 11.0 0.00 0.00 0.00 58 995.3
20260505060011 41 296 9.0 11.0 0.00 0.00 0.00 58 995.3